Home   Weather   Neenah   Past weeks

Flag for USA Past Weather in Neenah, Wisconsin, USA — Yesterday and Last 2 Weeks

Now
52 °F

Clear.


Feels Like: 47 °F
Forecast: 51 / 59 °F
Wind: 16 mph from West

Location: Appleton / Outagamie

Current Time: Sep 26, 2016 at 5:32:31 AM

Latest Report: Sep 26, 2016 at 4:55 AM


Visibility: 10 mi

Pressure: 29.84 "Hg

Humidity: 67%

Dew Point: 41 °F

Location of NeenahLocation

Past Weather in Neenah — Graph

°F

Neenah Temperature Yesterday

Maximum temperature yesterday: 75 °F (at 12:45 PM)
Minimum temperature yesterday: 59 °F (at 12:15 AM)
Average temperature yesterday: 64 °F

High & Low Weather Summary for the Past Weeks

 TemperatureHumidityPressure
High81 °F (Sep 20, 2:45 PM)100% (Sep 11, 4:15 AM)30.30 "Hg (Sep 11, 4:15 AM)
Low50 °F (Sep 11, 4:15 AM)30% (Sep 20, 2:45 PM)29.82 "Hg (Sep 17, 11:45 AM)
Average63 °F80%30.05 "Hg
* Reported Sep 11 4:15 AM — Sep 26 4:15 AM, Neenah, Weather by CustomWeather, © 2016

Note: Actual official high and low records may vary slightly from our data, if they occured in-between our weather recording intervals... More about our weather records

Advertising

Neenah Weather History for the Previous 24 Hours

Scroll right to see more
 ConditionsComfort  
Time TempWeatherWind HumidityBarometerVisibility
4:15 AM
Mon, Sep 26
52 °FClear.12 mph67%29.84 "Hg10 mi
3:55 AM54 °FClear.15 mph63%29.84 "Hg10 mi
3:35 AM54 °FClear.14 mph63%29.85 "Hg10 mi
3:15 AM54 °FClear.16 mph67%29.85 "Hg10 mi
2:55 AM55 °FPassing clouds.15 mph63%29.85 "Hg10 mi
2:35 AM55 °FPassing clouds.15 mph67%29.87 "Hg10 mi
2:15 AM55 °FOvercast.15 mph67%29.87 "Hg10 mi
1:55 AM55 °FOvercast.15 mph72%29.86 "Hg10 mi
1:35 AM55 °FPartly cloudy.16 mph82%29.86 "Hg10 mi
1:15 AM57 °FPartly cloudy.15 mph82%29.86 "Hg10 mi
12:55 AM57 °FPassing clouds.14 mph82%29.86 "Hg10 mi
12:15 AM59 °FPartly cloudy.18 mph77%29.86 "Hg10 mi
11:55 PM
Sun, Sep 25
59 °FPassing clouds.12 mph77%29.85 "Hg10 mi
11:35 PM59 °FPassing clouds.13 mph77%29.86 "Hg10 mi
11:15 PM61 °FClear.12 mph77%29.86 "Hg10 mi
10:45 PM61 °FPassing clouds.12 mph77%29.86 "Hg10 mi
9:45 PM63 °FPassing clouds.12 mph73%29.88 "Hg10 mi
8:45 PM64 °FMostly cloudy.17 mph78%29.88 "Hg10 mi
7:45 PM68 °FDrizzle. Mostly cloudy.8 mph100%29.84 "Hg5 mi
6:00 PM72 °FFog.5 mph100%29.83 "Hg5 mi
4:45 PM72 °FFog.7 mph100%29.84 "Hg6 mi
3:45 PM72 °FRain. Cloudy.13 mph83%29.84 "Hg4 mi
2:45 PM75 °FPartly sunny.16 mph65%29.85 "Hg10 mi
1:45 PM73 °FBroken clouds.14 mph74%29.91 "Hg10 mi
12:45 PM75 °FPartly sunny.17 mph65%29.93 "Hg10 mi
11:45 AM72 °FBroken clouds.15 mph73%29.96 "Hg10 mi
10:45 AM70 °FPartly sunny.16 mph78%29.99 "Hg10 mi
9:45 AM68 °FPartly sunny.13 mph94%30.01 "Hg10 mi
8:45 AM66 °FPartly sunny.10 mph94%30.03 "Hg10 mi
7:45 AM64 °FBroken clouds.10 mph94%30.04 "Hg10 mi
6:45 AM63 °FBroken clouds.10 mph94%30.05 "Hg10 mi
5:45 AM61 °FPassing clouds.9 mph100%30.07 "Hg10 mi
5:15 AM61 °FClear.8 mph94%30.07 "Hg10 mi
Weather by CustomWeather, © 2016

See weather overviewHow to use our weather pages